Moses Lake, WA
on Monday, November 26, 2012

Monday
Previous Day Next Day
Daily Summary
 ActualAverageRecord
Temperature
Mean Temperature °F 34°F  
Max Temperature 39°F 40°F 60°F (2003)
Min Temperature 25°F 27°F -6°F (1985)
Degree Days
Heating Degree Days 33 31  
Month to date heating degree days 619 693  
Since 1 July heating degree days 1144 1330  
Cooling Degree Days 0 0  
Month to date cooling degree days 0 0  
Year to date cooling degree days 719 615  
Moisture
Dew Point 27°F   
Average Humidity 81    
Maximum Humidity 92    
Minimum Humidity 70    
Precipitation
Precipitation 0.00 in 0.05 in 0.16 in (2006)
Month to date precipitation 1.05 1.02  
Year to date precipitation 7.65 7.49  
Wind
Wind Speed 8 mph   
Max Wind Speed 14 mph   
Max Gust Speed 16 mph   
Visibility 9 miles   
Events Fog , Snow   

Key: T is trace of precipitation, MM is missing value
Source: NWS Daily Summary
Time(PST)TemperatureDew PointHumidity Pressure Visibility Wind DirectionWind SpeedGust SpeedPrecipitationEvents Conditions
12:52 AM 27.0°F 24.1°F 89% 30.38 in 10.0 miles North 8.1 mph - N/A   Clear
1:52 AM 26.1°F 23.0°F 88% 30.38 in 10.0 miles North 9.2 mph - N/A   Clear
2:52 AM 26.1°F 23.0°F 88% 30.37 in 10.0 miles North 5.8 mph - N/A   Clear
3:52 AM 25.0°F 23.0°F 92% 30.35 in 10.0 miles North 5.8 mph - N/A   Clear
4:20 AM 26.6°F 23.0°F 86% 30.30 in 7.0 miles North 9.2 mph - N/A   Scattered Clouds
4:24 AM 26.6°F 24.8°F 93% 30.30 in 2.5 miles NNE 10.4 mph - N/A   Mostly Cloudy
4:30 AM 26.6°F 24.8°F 93% 30.30 in 0.8 miles NNE 9.2 mph - N/A   Mist
4:52 AM 28.9°F 27.0°F 92% 30.35 in 0.5 miles NNE 10.4 mph - N/A Fog Light Freezing Fog
5:16 AM 30.2°F 28.4°F 93% 30.31 in 2.0 miles NNE 10.4 mph - N/A   Overcast
5:24 AM 30.2°F 28.4°F 93% 30.31 in 7.0 miles NNE 10.4 mph - 0.00 in Snow Light Snow
5:52 AM 30.0°F 28.0°F 92% 30.34 in 9.0 miles NNE 10.4 mph - 0.00 in   Overcast
6:20 AM 30.2°F 26.6°F 86% 30.30 in 10.0 miles NNE 10.4 mph - N/A   Scattered Clouds
6:52 AM 28.9°F 27.0°F 92% 30.33 in 10.0 miles North 10.4 mph - N/A   Clear
7:52 AM 28.9°F 27.0°F 92% 30.35 in 10.0 miles North 9.2 mph - N/A   Clear
8:52 AM 32.0°F 28.0°F 85% 30.34 in 10.0 miles North 9.2 mph - N/A   Clear
9:40 AM 33.8°F 28.4°F 81% 30.29 in 10.0 miles NNE 10.4 mph - N/A   Partly Cloudy
9:52 AM 33.1°F 28.0°F 82% 30.34 in 10.0 miles NNE 10.4 mph - N/A   Scattered Clouds
10:52 AM 37.0°F 30.0°F 76% 30.32 in 10.0 miles NNE 10.4 mph - N/A   Scattered Clouds
11:49 AM 37.4°F 30.2°F 75% 30.26 in 10.0 miles North 9.2 mph - N/A   Mostly Cloudy
11:52 AM 37.0°F 30.0°F 76% 30.30 in 10.0 miles North 8.1 mph - N/A   Mostly Cloudy
12:52 PM 37.0°F 30.0°F 76% 30.28 in 10.0 miles North 9.2 mph - N/A   Overcast
1:52 PM 39.0°F 30.0°F 70% 30.25 in 10.0 miles North 6.9 mph - N/A   Overcast
2:52 PM 37.9°F 28.0°F 68% 30.25 in 10.0 miles NNE 3.5 mph - N/A   Overcast
3:52 PM 36.0°F 28.9°F 76% 30.24 in 10.0 miles North 4.6 mph - N/A   Mostly Cloudy
4:02 PM 33.8°F 28.4°F 81% 30.20 in 10.0 miles North 4.6 mph - N/A   Scattered Clouds
4:52 PM 34.0°F 28.9°F 82% 30.25 in 10.0 miles NNW 5.8 mph - N/A   Mostly Cloudy
5:52 PM 35.1°F 28.9°F 78% 30.25 in 10.0 miles North 4.6 mph - N/A   Overcast
6:52 PM 34.0°F 28.9°F 82% 30.26 in 10.0 miles North 5.8 mph - N/A   Mostly Cloudy
7:52 PM 33.1°F 28.0°F 82% 30.26 in 10.0 miles North 8.1 mph - N/A   Scattered Clouds
8:52 PM 32.0°F 28.0°F 85% 30.27 in 10.0 miles North 8.1 mph - N/A   Clear
9:52 PM 32.0°F 27.0°F 82% 30.28 in 10.0 miles North 6.9 mph - N/A   Scattered Clouds
10:52 PM 30.0°F 27.0°F 88% 30.27 in 10.0 miles North 5.8 mph - N/A   Partly Cloudy
11:52 PM 28.0°F 25.0°F 88% 30.27 in 10.0 miles NNE 4.6 mph - N/A   Clear
Moon Phase
Nov. 26 Nov. 28 Dec. 06 Dec. 13 Dec. 20
Sunrise:07:17 AM (PST) Moon Rise:03:10 PM (PST)11/26
Sunset:04:11 PM (PST) Moon Set:05:28 AM (PST)11/26

Copyright © 2014 The Weather Underground, Inc.